www.pogodaiklimat.ru

Погода и климат >> Архив погоды >> Украина >> Новоднестровск


ПОГОДА в Новоднестровске

  • Прогноз погоды в Новоднестровске
  • Монитор погоды в Новоднестровске
  • Климат города

АРХИВ ПОГОДЫ в Новоднестровске

Время (UTC), дата Ветер
(напр.,м/с)
 
Видим.   Явления Облачность Т
(С)
Тd
(С)
f
(%)
Тe
(С)
Тes
(С)
Комфортность P
(гПа)
Po
(гПа)
Тmin
(С)
Tmax
(С)
R
(мм)
R24
(мм)
S
(см)
12 12.07 З 2 20 км 3/3 1000 м
[Cu hum]
+26.6 +16.5 54 +30 +41 душно 1012.2 984.9
15 12.07 ЮВ 1 5 баллов 55 984.0
18 12.07 СЗ 2 10 км слабый ливневой дождь {гроза} 9/9 630 м
[Cb cap]
+18.4 +16.8 90 +20 +20 1014.2 986.1 +28.2 19
21 12.07 З 1 9 баллов 84 985.3
00 13.07 СЗ 1 4000 м дымка {гроза, ливн. осадки} ясно +17.1 +15.9 93 +18 +18 1013.1 984.9 2.0
03 13.07 СЗ 1 дымка ясно 94 985.3
06 13.07 СЗ 1 10 км ясно +20.0 +17.4 85 +24 +32 комфорт 1013.1 985.2 +16.0 2
09 13.07 СЗ 2 9 баллов 63 985.3
12 13.07 З 2 20 км 8/3 1000 м
[Cu hum Ci]
+25.7 +13.6 47 +28 +37 жарко 1012.0 984.6
15 13.07 З 3 9 баллов 50 984.0
18 13.07 З 1 10 км 9/4 600 м
[Cu hum Ac trans]
+22.4 +15.8 66 +26 +26 жарко 1011.9 984.2 +26.0
21 13.07 СЗ 3 7 баллов 71 984.4
00 14.07 З 3 10 км ясно +17.0 +13.7 81 +17 +17 1012.9 984.6
03 14.07 З 2 ясно 87 984.0
06 14.07 З 1 10 км 1/0
[Ac trans]
+20.0 +14.8 72 +23 +31 комфорт 1011.9 984.0 +15.8
09 14.07 З 4 7 баллов 63 984.0
12 14.07 З 3 10 км в посл. час ливневой дождь 8/5 600 м
[Cb calv Ac trans]
+20.0 +16.9 82 +23 +27 комфорт 1010.3 982.4 1.0
15 14.07 З 5 5 баллов 66 982.7
18 14.07 З 3 10 км {ливн. осадки} 4/1 600 м
[Cu hum Ac trans Ci fib]
+19.3 +15.4 78 +21 +21 комфорт 1009.1 981.2 +23.4 1
21 14.07 З 2 ясно 85 982.7
00 15.07 З 2 4000 м дымка ясно +16.0 +14.3 90 +16 +16 1009.5 981.2
03 15.07 З 1 дымка 8 баллов 91 981.3
06 15.07 З 2 4000 м дымка 9/9 600 м
[Cb cap]
+18.2 +15.9 86 +19 +20 1008.8 980.8 +15.9
09 15.07 В 3 7 баллов 77 981.3
12 15.07 З 2 10 км слабый ливневой дождь {гроза} 9/6 870 м
[Cb cap Ac trans]
+18.0 +16.5 91 +19 +22 1008.0 980.0 18.0
15 15.07 СЗ 2 слабый ливневой дождь н/о 90 990.7
18 15.07 З 2 10 км {ливн. осадки} 8/4 600 м
[Cb calv Ac trans]
+18.3 +16.3 88 +19 +19 1007.7 979.7 +22.0 19
21 15.07 З 2 5 баллов 91 990.7
00 16.07 З 3 10 км 8/0
[Ac trans Ci fib]
+16.2 +15.2 94 +16 +16 1008.3 980.1
03 16.07 З 2 5 баллов 94 981.3
06 16.07 З 3 10 км 9/9 800 м
[Sc]
+18.0 +14.9 82 +18 +19 1007.9 979.9 +15.3
09 16.07 З 2 5 баллов 68 980.0
12 16.07 ЮЗ 3 20 км {ливн. осадки} 8/6 800 м
[Cb calv Ac trans]
+19.2 +13.3 69 +21 +24 комфорт 1007.3 979.4 0.5
15 16.07 З 2 3 балла 73 978.7
18 16.07 З 2 9 баллов 76 978.7 0.5
21 16.07 ЮЗ 2 2 балла 83 978.7
00 17.07 З 2 10 км 3/0
[Ac trans]
+17.0 +14.6 86 +17 +17 1005.6 977.6
03 17.07 З 2 ясно 90 977.3
06 17.07 СЗ 2 10 км 8/5 600 м
[Cb calv Ac trans]
+17.3 +14.7 85 +18 +20 1004.8 976.8 +15.8
09 17.07 СЗ 2 7 баллов 75 977.3
12 17.07 СЗ 3 2 балла 60 976.0
15 17.07 З 3 9 баллов 56 974.7
18 17.07 С 1 10 км 8/3 1000 м
[Cu hum Ac trans Ci fib]
+22.0 +17.4 75 +26 +26 душно 1002.6 975.1 +25.4
21 17.07 З 2 7 баллов 80 974.7
00 18.07 З 2 4000 м 3/0
[Ac trans]
+18.4 +15.7 84 +20 +20 1002.4 974.6
03 18.07 СЗ 2 5 баллов 83 974.7
06 18.07 С 3 10 км 9/0
[Ci]
+20.5 +16.8 79 +24 +29 комфорт 1002.6 975.0 +17.6
09 18.07 З 3 9 баллов 69 974.7
12 18.07 ЮЗ 2 20 км 9/5 1000 м
[Cu hum Ac trans Cc]
+23.3 +15.8 63 +28 +32 душно 1001.5 974.2
15 18.07 СЗ 2 5 баллов 65 974.7
18 18.07 СЗ 1 10 км {ливн. осадки} 9/5 600 м
[Sc Ac trans]
+22.1 +17.3 74 +27 +27 душно 1001.8 974.4 +24.4 0.0
21 18.07 З 2 слабый дождь н/о 87 974.7
00 19.07 СЗ 2 2 балла 92 974.7 6.0
03 19.07 СЗ 1 ясно 92 974.7
06 19.07 СЗ 2 9 баллов 87 976.0 6.0
09 19.07 СЗ 2 5 баллов 72 976.0

 

Местоположение метеостанции Новоднестровск (Черновицкая область, Украина): широта 48.57 долгота 27.45 высота над уровнем моря 241 м.

В архиве по умолчанию представлена погода в Новоднестровске за последнюю неделю. Архивные данные за месяц целиком и за предыдущие месяцы, начиная с января 2011 года, Вы можете получить, выбрав интересующий диапазон дат из раскрывающегося списка и нажав кнопку "Ввод!".


*Определитесь, кто Вы:
робот инопланетянин человек

Внимание! Время в таблицах - всемирное. Для получения местного времени необходимо прибавить поправку, которая в Новоднестровске равна 2 ч.

Смотрите также архив погоды в соседних городах и на ближайших метеорологических станциях:

Погода в Могилев-Подольском (Винницкая область, Украина) (28 км)
Погода в Новой Ушице (Хмельницкая область, Украина) (34 км)
Погода в Бричанах (Молдова) (37 км)
Погода в Каменец-Подольском (Хмельницкая область, Украина) (58 км)
Погода в Жмеринке (Винницкая область, Украина) (72 км)
Погода в Сороках (Молдова) (75 км)
Погода в Darabani (Румыния) (76 км)
Погода в Stanca Stefanesti (Румыния) (84 км)
Погода в Хмельнике (Винницкая область, Украина) (86 км)
Погода в Бельцах (Молдова) (95 км)

Пояснения к столбцам:

Ветер - указаны скорость ветра в м/с - средняя за 10 мин, порывы в срок и между сроками (в фигурных скобках) и направление, откуда дует ветер: С - северный, СВ - северо-восточный, В - восточный, ЮВ - юго-восточный, Ю - южный, ЮЗ - юго-западный, З - западный, СЗ - северо-западный.
Видимость - горизонтальная дальность видимости в метрах или километрах. При видимости от 1 до 10 км при отсутствии осадков обычно наблюдается дымка, при ухудшении видимости до 1 км и менее - туман. В сухую погоду видимость может ухудшаться дымом, пылью или мглою.
Явления - указаны атмосферные явления, наблюдавшиеся в срок или в последний час перед сроком; фигурными скобками обозначены явления, наблюдавшиеся между сроками (за 1-3 часа до срока); квадратными скобками обозначены град или гололедные отложения с указанием их диаметра в мм.
Облачность - указаны через наклонную черту общая и нижняя облачность в баллах и высота нижней границы облаков в метрах; квадратными скобками обозначены формы облаков: Ci - перистые, Cs - перисто-слоистые, Cc - перисто-кучевые, Ac - высококучевые, As - высокослоистые, Sc - слоисто-кучевые, Ns - слоисто-дождевые, Cu - кучевые, Cb - кучево-дождевые. Подробнее классификацию облаков см. в Атласе облаков (PDF).
T - Температура воздуха - температура, измеренная на высоте 2 м над землей.
Td - Температура точки росы - температура, при понижении до которой содержащийся в воздухе водяной пар достигнет насыщения.
f - Относительная влажность воздуха - влажноcть воздуха, измеренная на высоте 2 м над землей.
Te - Эффективная температура - температура, которую ощущает одетый по сезону человек в тени. Характеристика душности погоды. При расчете учитывается влияние влажности воздуха и скорости ветра на теплоощущения человека.
Tes - Эффективная температура на солнце - температура, которую ощущает человек, с поправкой на солнечный нагрев. Характеристика знойности погоды. Зависит от высоты солнца над горизонтом, облачности и скорости ветра. Ночью, в пасмурную погоду, а также при ветре 12 м/с и более поправка равна нулю.
P - Атмосферное давление - приведенное к уровню моря атмосферное давление.
Po - Атмосферное давление - измеренное на уровне метеостанции атмосферное давление.
Tmin - Минимальная температура - минимум температуры воздуха на высоте 2 м над землей.
Tmax - Максимальная температура - максимум температуры воздуха на высоте 2 м над землей.
R - Количество осадков - Количество выпавших осадков за период времени, мм. При наведении курсора мыши на число - период времени, за который выпало указанное количество осадков.
R24 - Количество осадков - Количество выпавших осадков за 24 часа, мм.
S - Снежный покров - Высота снежного покрова, см. При наведении курсора мыши на число - состояние снежного покрова и степень покрытия местности в баллах.